Location: Ellerstadt
(49.4644°N, 8.2615°E)
Time: 23:59:02
(UTC+00:00)

Cosmos 1727 Rocket - Pass Details

Date: 03 March 2021
Orbit: 961 x 996 km, 82.9° (Epoch: 13 April)

Event Time Altitude Azimuth Distance (km) Brightness Sun altitude
Rises 18:41:14 0° 354° (N) 3,659 7.2 -15.1°
Reaches altitude 10° 18:43:56 10° 3° (N) 2,709 6.4 -15.5°
Maximum altitude 18:49:42 39° 71° (ENE) 1,418 4.4 -16.4°
Enters shadow 18:52:57 23° 124° (SE) 1,931 5.0 -17.0°
